Princeton/Rocky Hill (39N)
Princeton, NJ
Field Elevation: 128
Lat: 40°23.94N  Long: 74°39.54W
CTAF/Unicom Freq: 122.7250
   
     For Weather-by-Phone, call (609)-924-3901
Weather Advisories
11/22/2014 09:58 Z
Altimeter 30.50" Hg
Wind 010° @ 0 KT
Gusts --
Visibility 10 SM
Ceiling CLR
Temperature -8° C (18° F)
Dewpoint -11° C (12° F)
Relative Humidity 82%
Density Altitude --
Condensation Altitude 1,200 feet
  Wind and Runways
Indicated Runway = 10
History
 
 
More Info
All DigiWx sites map
 
NOAA Forecast
 
Airport IQ 5010
(OCNJ) Ocean City
(PN44) Upper Gwynedd Heliport
 
about DigiWx
 
FAA Disclaimer: The data displayed is for advisory purposes only and is not to be used for flight planning or operations. For official data, please call (609)-924-3901 to hear the current automated AWOS voice message.
  METAR 39N 220958Z AUTO 01000KT 10SM CLR M08/M11 A3050